PEGASUS DEB

Satellite information

Favourite Embed

Satellite Type and Status

DEBRISIN ORBIT

Key statistics

Satellite PEGASUS DEB at a glance.

Uptime

11435

Days in orbit

Revolutions

≈ 15.3

Per day

Orbit

LEO

Low Earth Orbit

Inclination

82.0

Latest

Satellite identification and parameters

Extended collection of information and parameters for PEGASUS DEB.

Object identification

Identified? True

Debris? True

Object name: PEGASUS DEB

International designator: 1994-029AG

Object number (NORAD): 23986

Object ID (CCSDS): 23986

Country: UNITED STATES OF AMERICA (US)

Current information (Y/N): Y

RCS size: SMALL

Orbital parameters

Period: 94.221 minutes

Inclination: 82.0406 deg

SMA: 6858.958 km

Apoapsis: 506.914 km

Periapsis: 454.732 km

RAAN: 283.0894 deg

Eccentricy: 0.0038039

Argument of periapsis: 85.2061 deg

Mean anomaly: 275.3519 deg

Mean motion: 15.28324376 rev/day

Mean motion (dot): 0.00017513 rev/day2

B* drag term: 0.00061961373 1/REarth

Two-line elements (TLE)

Creation date: Sept. 8, 2025, 3:16 a.m.

Reference frame: TEME

Reference center: EARTH

Epoch: Sept. 7, 2025, 12:10 p.m. UTC

TLE line 0: 0 PEGASUS DEB

TLE line 1: 1 23986U 94029AG 25250.50733180 .00017513 00000-0 61961-3 0 9996

TLE line 2: 2 23986 82.0406 283.0894 0038039 85.2061 275.3519 15.28324376587394

Live tracking on map

Real-time ground track for satellite PEGASUS DEB.

In-orbit conjunctions

A list of the most updated potential collisions computed for object PEGASUS DEB.

Target Orbit TCA Probability of collision Miss distance Type
CZ-4C R/B SSO 2024-08-23 13:31:28 0.0001827931 950.0 (m) ROCKET BODY
COSMOS 1862 LEO 2024-06-30 00:35:56 0.001064007 88.0 (m) PAYLOAD

Associated space launch

PEGASUS DEB was lifted into orbit during the mission ‘Pegasus HAPS | Space Test Experiments Platform 2 (STEP-2)’, on board a Pegasus HAPS space rocket.

The launch took place on May 19, 1994, 5:03 p.m. from Edwards Air Force Base.

For more information about the launch, click the button.

Launch to space Pegasus HAPS | Space Test Experiments Platform 2 (STEP-2)
Pegasus HAPS | Space Test Experiments Platform 2 (STEP-2)

Agency: N/A

Status: Launch Successful

Launch date: May 19, 1994, 5:03 p.m. UTC

Rocket: Pegasus HAPS

Launch pad: Edwards Air Force Base

Location: Air launch to orbit

...

Latest news about this satellite

There are no fresh news available about this satellite. Check back as we update our databases every day.


Newsletter sign-up

Weekly statistics, charts and insights to help you stay on top of the space industry.